Regional Weather Roundup
Issued by NWS Newport/Morehead, NC

Current Version | Previous Version | Graphics & Text | Print | Product List | Glossary Off
Versions: 1 2 3 4 5 6 7 8 9 10 11 12 13 14 15 16 17 18 19 20 21 22 23 24 25 26 27 28 29 30 31 32 33 34 35 36 37 38 39 40 41 42 43 44 45 46 47 48 49 50

000
ASUS42 KMHX 020010
RWRMHX
WEATHER ROUNDUP FOR EASTERN NORTH CAROLINA
NATIONAL WEATHER SERVICE NEWPORT/MOREHEAD CITY NC
800 PM EDT MON SEP 01 2014

NOTE: "FAIR" INDICATES FEW OR NO CLOUDS BELOW 12,000 FEET
WITH NO SIGNIFICANT WEATHER AND/OR OBSTRUCTIONS TO VISIBILITY

NCZ015>017-031-032-045>047-102-103-020100-
NORTH COAST

CITY           SKY/WX    TMP DP  RH WIND       PRES   REMARKS
EDENTON        MOCLDY    84  77  79 S8        30.02S
ELIZABETH CITY MOCLDY    84  76  76 S8        30.02R
KITTY HAWK     MOCLDY    82  76  81 S7        30.03R
MANTEO         MOCLDY    82  76  83 S16       30.04S

$$

NCZ045>047-081-094-103-104-020100-
CENTRAL COAST

CITY           SKY/WX    TMP DP  RH WIND       PRES   REMARKS
FRISCO         PTCLDY    80  78  94 SW13      30.06R
SWANQUARTER      N/A     82 N/A N/A SW12G21   30.00S

$$

NCZ095-097-098-100-101-020100-
SOUTHERN COAST

CITY           SKY/WX    TMP DP  RH WIND       PRES   REMARKS
BEAUFORT       PTCLDY    82  76  81 SW15      30.07R
CEDAR ISLAND     N/A     81 N/A N/A S9        30.09S
JACKSONVILLE   CLOUDY    81  75  82 S7        30.06R
NEWPORT        NOT AVBL
PINEY ISLAND   PTCLDY    82  77  84 S7        30.06R
WILMINGTON     MOCLDY    82  75  79 S8        30.06R


$$

NCZ011>013-027>030-043-044-078>080-089-090>093-098-020100-
COASTAL PLAIN

CITY           SKY/WX    TMP DP  RH WIND       PRES   REMARKS
AHOSKIE        MOCLDY    80  76  87 CALM      30.02S
CLINTON        MOCLDY    85  76  74 S3        30.04S
ELIZABETHTOWN  MOCLDY    85  75  72 S5        30.05S
GOLDSBORO      PTCLDY    85  78  78 S5        30.02R
GREENVILLE     CLOUDY    82  77  83 CALM      30.05R
HAVELOCK       MOCLDY    81  76  84 SW8       30.08R
KENANSVILLE    MOCLDY    82  73  73 S3        30.05S
KINSTON        MOCLDY    84  77  79 S10       30.05R
NEW BERN       MOCLDY    82  76  81 SW7       30.07R
RICHLANDS      CLOUDY    81  73  78 S7        30.07R
ROANOKE RAPIDS NOT AVBL
ROCKY MOUNT    CLOUDY    80  74  81 CALM      30.03R
WASHINGTON     MOCLDY    84  77  79 S8        30.04R
WHITEVILLE     MOCLDY    82  75  78 S7        30.06R

$$

AMZ130-135-150-152-154-156-158-170-250-252-270-ANZ085-086-088-633-658-670-020100-
MARINE OBSERVATIONS

STATION/POSITION TIME  TEMP    WIND        PRES    WAVE   SWELL
                       AIR SEA DIR/SP/G            HT/PER HT/PER
                 (UTC) (F)     (DEG/KT/KT) (MB)    (FT/S) (FT/S)
CHESAPEAKE LIGHT 2300   81     180/ 19/ 20 1015.6
BUOY 44014       0000   80 78  200/ 16/ 17 1016.4    3/ 8   2/ 8
DUCK             0000   83 75  180/ 14/ 19 1015.7
2E DUCK          0000                        N/A     2/11   2/11
OREGON INLET     0000   82 85  200/ 16/ 19 1017.4
BUOY 44095       0000      80                N/A     3/11   2/11
20E OREGON INLET NOT AVBL
HATTERAS CG      0000   82 84  210/  9/ 14 1018.4
DIAMOND BUOY     0000   82     200/ 16/ 19 1017.7    3/ 4   2/ 9
CAPE LOOKOUT     2300   82     200/ 10/ 13 1017.8
BEAUFORT LAB     0000   82 84  210/  8/ 12 1017.6
30 SE NEW RIVER  2300   82 83  210/ 12/ 16 1018.1    3/ 9   2/ 9
5 SE WRIGHTSVILL 2300   79 83                N/A
BUOY 41002       2248   82 85  200/  8/ 10 1020.0    3/ 8   3/ 8
BUOY 41004       0000   83 84  170/  6/  8 1018.0    2/ 8   2/ 8

$$



USA.gov is the U.S. government's official web portal to all federal, state and local government web resources and services.